Vertical_Velocity
0 -2 -1 -1 2 -2 -1 -1 -1 0 -0 -1 -1 0 -0 -1 -3 2 -4 -0 -2 -0 -4 -5 -4 -4 -2 2 -1 -1 1 -0 0 0 -1 -0 1 -1 2 -0 5 -4 -4 -14 -7
-0 -1 0 -1 1 -2 0 -1 -1 -2 -1 -1 -2 -1 -0 -1 -3 -3 0 -1 -2 -3 -4 -6 -8 -10 5 0 -0 2 1 1 4 1 -0 -1 5 4 5 -4 -10 -7 -3 6 10
3 -1 -0 -0 -0 -2 0 -2 -1 -2 -1 -1 -2 -1 -1 -1 -2 0 -2 -3 -2 -1 -2 1 0 1 0 -4 1 -1 -0 1 -4 2 2 0 -3 1 4 -6 -2 -2 0 4 7
3 -0 -1 1 -0 -3 0 -2 -1 -1 -1 -2 -1 -2 -2 -2 4 -4 -2 -3 -4 -4 -1 -3 -3 -5 1 -1 2 0 1 4 -3 1 -2 -0 -0 -3 4 -32 3 -3 -9 -5 -7
-1 2 -1 1 0 -0 -2 1 -1 -0 -1 -0 -0 -1 -1 -2 2 -1 -2 -3 -3 -3 -3 -4 -3 -1 0 1 -2 4 -1 -0 -1 -0 -3 2 -3 -2 -13 -4 -4 -8 -3 -6 -3
-0 0 -2 -1 -1 -1 -0 -1 -1 -1 -1 -1 -0 -1 -1 4 -1 -2 -2 -1 -1 -3 -0 -4 -0 -0 -0 -0 3 2 1 -4 -5 -4 -2 8 -6 18 -21 -1 -4 6 -1 -1 -2
-1 -1 -1 -0 -0 -3 -3 -1 -2 -1 -0 -1 -0 -2 -1 -0 -2 1 -1 -2 -2 -3 -3 -1 -2 -1 1 -2 0 -4 2 -2 -2 -3 -3 9 0 -3 4 21 1 -3 -7 -8 -4
-1 -2 -3 -2 -1 -0 -1 -1 -1 -1 -0 -0 -0 -1 4 1 -1 -1 -1 2 -4 -2 -2 -1 -0 -2 -2 -4 -1 4 4 0 -7 -1 -5 -2 -9 -8 -7 5 -3 -11 -11 -9 -13
-1 -2 -1 -1 0 -1 -1 -2 -1 0 1 -1 -0 -1 7 -1 -1 -2 -0 -1 -2 -4 -4 -3 -3 -0 -0 2 -2 2 -0 -0 -9 0 -0 6 -11 -3 -7 1 -5 -2 -0 -3 -4
0 0 1 0 -1 -1 -1 -1 -1 -2 -1 -1 0 2 1 6 -3 -1 -2 -0 -3 -3 6 -2 0 1 2 0 -2 -1 -1 -4 1 -8 -2 -4 -10 -8 -5 7 -2 -5 -4 -3 -1
-0 -2 -0 -1 -2 -1 1 -3 -5 -5 -2 -3 4 2 -1 -2 1 -2 -1 -2 -3 1 1 3 -1 -1 -0 2 2 2 3 2 -8 -9 16 -0 -1 -7 -9 2 -2 -3 2 1 5
0 -1 0 -2 -1 -1 -0 -1 0 3 -10 2 -1 -2 -1 -2 1 -0 -0 -1 0 0 -1 2 -2 0 1 0 3 1 2 -8 -7 -2 12 -2 -10 -5 -1 -4 4 2 -3 -7 -8
-6 1 1 -0 -1 -0 0 -0 1 1 4 3 -0 1 3 -1 2 7 -3 1 2 1 -0 2 -8 0 2 -1 3 -2 4 -2 9 -5 -4 1 -11 -4 -16 -2 -3 2 -2 -2 7
3 -4 1 -3 -3 -0 -2 0 1 -1 2 -13 1 6 -2 -1 3 1 0 -2 -1 1 1 -1 -0 1 0 0 7 1 -1 2 1 4 1 -0 -15 -4 -4 -3 0 3 0 3 0
-1 2 -2 -3 1 0 0 1 2 0 -4 -10 4 -1 1 4 -1 2 -3 2 -1 -0 -2 -19 0 -1 -0 -4 1 -10 2 4 3 3 5 -7 5 -13 2 -3 -4 -2 5 3 -2
-2 -2 -1 -2 -2 1 1 1 -0 -5 -14 -4 1 0 3 2 1 -1 1 -2 -0 2 2 -6 -3 3 -4 -1 2 -2 3 -1 0 -1 -2 -6 -0 -13 -1 1 -3 -0 -1 -3 -4
-0 -3 -1 0 -1 1 -0 -2 -1 0 -7 -2 1 1 0 1 2 2 1 2 0 0 0 -3 -1 2 0 2 -1 -3 -3 -5 -8 -4 -8 -1 -1 -11 -6 1 2 1 -2 1 -0
-0 3 1 2 -3 -1 -0 4 4 -5 -2 1 -0 1 1 -1 -0 1 0 -0 3 2 1 -0 -15 -1 3 -1 1 0 2 -2 2 0 -8 -1 -3 -19 1 2 2 3 6 2 -6
0 2 -4 0 -1 0 -1 3 -6 -1 2 1 1 3 1 2 1 2 -0 -1 1 -2 -2 1 -3 1 2 -1 -4 0 1 -8 3 -1 6 -4 -9 -25 -3 -2 -4 -2 -7 -9 -5
1 4 -8 2 5 4 0 -4 -1 1 -0 0 2 -1 1 1 1 3 1 -3 0 -2 2 -4 -4 -1 2 2 -1 -3 -2 -6 -3 0 -3 -4 -3 -7 -7 -3 -2 -4 -1 -10 -7
2 -1 2 2 6 2 -1 -4 -1 -11 2 4 0 -0 0 0 -1 -1 -4 -1 1 2 1 1 2 -9 2 -0 -1 5 0 3 -2 0 -0 0 -13 -2 1 1 1 -0 0 -6 -4
-2 3 2 7 4 -0 -0 -2 -1 -5 3 -2 2 2 1 0 0 1 -2 2 -1 -3 -1 -5 1 0 -8 -11 1 -1 -1 2 -4 -7 -3 5 -37 -1 1 2 2 -2 -2 -3 4
0 -0 -1 3 1 0 -1 -3 1 4 -3 1 -0 0 0 2 3 2 -0 3 -0 -0 -0 0 -4 -2 -13 -5 1 0 -1 -0 0 1 -6 9 -23 -1 -3 -4 -1 2 -6 1 2
4 2 4 8 1 0 0 -3 -1 -2 -2 -0 0 6 4 1 -1 -2 -2 1 -4 -2 2 -1 0 -3 -6 -9 5 0 -2 -1 5 3 -6 -10 -14 -15 -7 -1 -5 -7 -5 1 2
1 -1 3 0 1 1 4 2 -0 1 -0 1 -0 3 1 3 -0 -1 -1 -3 3 -2 0 1 1 4 -3 -1 3 2 2 -2 5 -6 7 -21 3 -5 2 3 2 5 -5 -0 0
5 -3 -2 -0 2 6 -1 -6 3 -9 8 -4 7 -2 2 4 0 -3 9 2 2 5 -0 0 -3 1 -5 -2 3 1 -1 0 -0 -3 1 2 -8 3 -1 -1 -3 0 0 -0 1
9 13 8 -3 1 3 -3 -5 -5 2 -9 -5 3 7 4 -6 10 -5 3 1 6 5 -1 1 -0 -0 -5 0 -1 -1 -3 -1 -1 -0 3 2 -5 -0 -6 -2 0 1 -2 6 2
Height
1554 1553 1551 1550 1549 1548 1547 1545 1543 1541 1539 1537 1535 1533 1532 1530 1530 1531 1528 1530 1528 1525 1523 1521 1520 1518 1519 1519 1519 1518 1520 1517 1509 1508 1507 1505 1506 1507 1507 1505 1502 1502 1501 1499 1494
1555 1553 1552 1550 1549 1548 1546 1545 1543 1541 1539 1536 1535 1533 1531 1531 1531 1530 1531 1530 1528 1526 1523 1522 1520 1520 1520 1521 1521 1520 1520 1512 1511 1511 1511 1509 1510 1507 1507 1504 1496 1497 1496 1496 1495
1554 1553 1551 1550 1548 1547 1546 1544 1542 1540 1538 1536 1534 1533 1532 1532 1533 1533 1531 1531 1529 1527 1525 1525 1523 1522 1521 1521 1523 1522 1520 1513 1512 1512 1512 1511 1510 1508 1505 1501 1490 1493 1491 1492 1491
1554 1552 1551 1549 1548 1547 1545 1544 1542 1540 1538 1536 1534 1534 1533 1533 1536 1533 1532 1531 1529 1527 1526 1525 1524 1523 1522 1523 1523 1525 1516 1517 1513 1513 1511 1511 1508 1503 1503 1487 1489 1488 1487 1486 1485
1553 1551 1550 1549 1547 1546 1544 1542 1540 1538 1536 1535 1534 1533 1533 1534 1535 1533 1532 1530 1529 1528 1527 1526 1526 1525 1525 1524 1523 1520 1517 1515 1513 1510 1508 1506 1504 1502 1493 1485 1486 1483 1483 1482 1481
1551 1550 1549 1547 1545 1544 1542 1540 1539 1537 1535 1534 1533 1532 1532 1534 1532 1532 1531 1530 1529 1528 1529 1527 1528 1527 1527 1524 1524 1519 1518 1514 1507 1505 1503 1501 1499 1498 1486 1483 1479 1479 1477 1476 1475
1551 1549 1547 1546 1544 1542 1540 1539 1537 1536 1534 1533 1532 1531 1532 1533 1531 1531 1530 1529 1528 1528 1528 1528 1527 1528 1526 1523 1521 1520 1518 1509 1499 1500 1499 1495 1495 1490 1480 1480 1476 1474 1472 1470 1469
1551 1549 1547 1545 1543 1541 1539 1537 1535 1534 1533 1531 1530 1530 1532 1531 1530 1531 1530 1530 1528 1527 1527 1527 1526 1526 1525 1524 1518 1514 1513 1513 1497 1497 1495 1495 1484 1484 1479 1476 1473 1470 1467 1465 1463
1551 1549 1548 1546 1543 1540 1538 1536 1533 1532 1531 1530 1530 1530 1531 1530 1530 1530 1530 1529 1528 1527 1527 1527 1527 1526 1524 1521 1522 1511 1521 1512 1503 1497 1493 1495 1477 1477 1479 1473 1466 1460 1458 1455 1453
1551 1549 1547 1545 1542 1540 1537 1534 1531 1530 1530 1530 1530 1534 1531 1531 1528 1528 1528 1527 1527 1527 1527 1527 1527 1525 1521 1522 1534 1523 1517 1510 1509 1496 1496 1489 1475 1464 1470 1465 1458 1452 1448 1446 1444
1551 1549 1547 1545 1542 1540 1537 1534 1535 1533 1530 1531 1530 1530 1530 1529 1528 1527 1527 1527 1528 1528 1525 1525 1529 1529 1516 1516 1518 1518 1516 1512 1504 1497 1490 1482 1473 1463 1457 1452 1447 1441 1439 1439 1439
1552 1550 1547 1545 1543 1541 1538 1538 1538 1539 1531 1526 1526 1527 1526 1527 1528 1527 1527 1529 1528 1526 1522 1525 1525 1516 1516 1517 1517 1515 1513 1507 1495 1490 1488 1477 1467 1463 1451 1444 1439 1436 1436 1437 1438
1550 1550 1548 1545 1543 1542 1540 1539 1538 1537 1536 1526 1525 1526 1527 1527 1526 1526 1527 1528 1526 1523 1521 1523 1515 1512 1515 1515 1514 1512 1509 1502 1498 1488 1487 1480 1464 1454 1445 1439 1433 1429 1431 1433 1433
1548 1548 1548 1545 1545 1542 1541 1540 1538 1537 1539 1531 1524 1525 1526 1526 1527 1526 1526 1529 1526 1523 1521 1518 1512 1513 1513 1512 1510 1515 1498 1496 1494 1496 1494 1484 1472 1459 1443 1435 1428 1426 1429 1429 1428
1545 1546 1546 1545 1545 1543 1543 1540 1539 1538 1547 1525 1524 1524 1525 1527 1527 1526 1526 1527 1525 1520 1522 1518 1510 1512 1514 1508 1504 1505 1496 1496 1491 1492 1493 1473 1486 1454 1439 1433 1427 1424 1423 1425 1425
1542 1543 1544 1544 1544 1543 1541 1540 1540 1544 1543 1529 1522 1523 1525 1523 1523 1525 1526 1527 1524 1522 1516 1513 1509 1509 1508 1504 1503 1497 1495 1489 1484 1494 1506 1474 1479 1449 1440 1428 1423 1422 1422 1421 1420
1538 1540 1541 1542 1543 1542 1541 1541 1545 1543 1519 1522 1519 1521 1520 1518 1519 1521 1521 1524 1522 1522 1513 1508 1500 1501 1506 1506 1496 1496 1502 1514 1512 1515 1491 1463 1468 1447 1428 1426 1425 1424 1421 1418 1415
1532 1536 1536 1539 1540 1541 1542 1542 1546 1522 1514 1513 1515 1518 1518 1513 1515 1516 1517 1516 1507 1513 1518 1519 1520 1501 1501 1504 1502 1500 1502 1527 1515 1503 1478 1468 1466 1442 1424 1423 1423 1422 1420 1416 1412
1528 1530 1533 1536 1538 1540 1542 1543 1532 1523 1516 1515 1517 1515 1515 1513 1517 1515 1512 1508 1501 1508 1519 1515 1506 1493 1493 1495 1498 1498 1509 1499 1503 1489 1487 1462 1441 1431 1420 1422 1422 1421 1419 1415 1405
1523 1527 1529 1532 1536 1538 1541 1531 1524 1519 1520 1518 1516 1508 1506 1509 1515 1512 1503 1498 1503 1505 1507 1507 1515 1493 1491 1494 1493 1496 1494 1506 1508 1502 1495 1470 1452 1448 1426 1421 1420 1420 1412 1406 1400
1522 1525 1525 1530 1533 1535 1534 1528 1522 1520 1521 1520 1514 1510 1507 1507 1506 1509 1502 1500 1500 1505 1508 1507 1508 1499 1493 1489 1489 1495 1499 1497 1503 1505 1510 1477 1455 1429 1424 1421 1422 1415 1408 1404 1396
1520 1523 1523 1525 1531 1527 1524 1524 1525 1519 1519 1519 1518 1515 1513 1510 1508 1507 1505 1499 1500 1504 1507 1506 1504 1508 1493 1478 1478 1481 1485 1487 1508 1500 1493 1486 1456 1427 1419 1424 1423 1417 1406 1400 1394
1517 1520 1522 1523 1522 1519 1520 1520 1521 1519 1518 1516 1515 1511 1509 1511 1513 1501 1499 1498 1501 1503 1504 1501 1505 1514 1493 1484 1479 1481 1479 1479 1481 1479 1475 1483 1445 1418 1419 1419 1417 1415 1406 1398 1394
1517 1518 1520 1520 1519 1521 1520 1516 1517 1515 1515 1515 1513 1511 1510 1509 1509 1502 1500 1497 1499 1501 1503 1504 1502 1503 1503 1486 1483 1483 1474 1475 1478 1486 1468 1458 1439 1426 1418 1419 1416 1411 1406 1399 1397
1513 1512 1512 1515 1516 1518 1520 1519 1514 1513 1512 1512 1507 1508 1509 1507 1506 1502 1499 1495 1494 1495 1499 1503 1501 1497 1489 1482 1479 1476 1470 1467 1470 1462 1467 1444 1441 1426 1423 1420 1416 1412 1407 1402 1400
1512 1513 1512 1511 1511 1514 1515 1514 1516 1514 1513 1508 1506 1506 1506 1507 1506 1503 1499 1497 1493 1492 1497 1497 1500 1494 1491 1479 1474 1468 1458 1458 1454 1450 1446 1440 1432 1424 1422 1416 1416 1412 1409 1404 1403
1510 1511 1511 1508 1509 1511 1510 1509 1509 1512 1510 1509 1508 1508 1507 1505 1503 1504 1501 1497 1494 1492 1492 1494 1499 1499 1490 1479 1474 1466 1447 1443 1443 1441 1439 1439 1431 1424 1418 1415 1414 1410 1410 1405 1403